sat.trackr.live / text

‹ back to catalog

STARLINK-34761

NORAD 64954 · 2025-158Y

PAYLOAD ACTIVE UNKNOWN

§ Identity

Operator
Country
US
Launch date
2025-07-27
Launch site
AFWTR
Launch vehicle
Mass (kg)
RCS (m²)

Purposes: comms

External: N2YO · Heavens-Above · Gunter

§ Orbital elements

Epoch: 2026-09-20T11:58:25.885344Z

Period
93.91 min
Inclination
97.2846°
Eccentricity
0.0002297
Mean motion
15.33452494 rev/d
Perigee alt
463.9 km
Apogee alt
467.1 km
Semi-major
6,843.7 km
B*
3.8991e-4
RAAN
121.7684°
Arg perigee
89.7318°
Mean anomaly
270.4188°
Rev number
6,470

§ Raw data

STARLINK-347611 64954U 25158Y   26263.49891071  .00012537  00000+0  38991-3 0  99972 64954  97.2846 121.7684 0002297  89.7318 270.4188 15.33452494 64708

JSON: /api/v1/satellites/64954 · /tle

For live sub-satellite position, see the globe view (requires WebGL).

§ Visibility from observer

Set your observer location to see the next 7 days of passes ≥ 10°. The values pass through the URL so the page stays shareable.

No JS? Fill the form by hand. The geolocation button needs JavaScript.